Regional Weather Roundup
Issued by NWS Newport/Morehead, NC

Home | Current Version | Previous Version | Text Only | Print | Product List | Glossary On
Versions: 1 2 3 4 5 6 7 8 9 10 11 12 13 14 15 16 17 18 19 20 21 22 23 24 25 26 27 28 29 30 31 32 33 34 35 36 37 38 39 40 41 42 43 44 45 46 47 48 49 50
000
ASUS42 KMHX 301513
RWRMHX
WEATHER ROUNDUP FOR EASTERN NORTH CAROLINA
NATIONAL WEATHER SERVICE NEWPORT/MOREHEAD CITY NC
1100 AM EDT SAT JUL 30 2016

NOTE: "FAIR" INDICATES FEW OR NO CLOUDS BELOW 12,000 FEET
WITH NO SIGNIFICANT WEATHER AND/OR OBSTRUCTIONS TO VISIBILITY

NCZ015>017-031-032-045>047-102-103-301600-
NORTH COAST

CITY           SKY/WX    TMP DP  RH WIND       PRES   REMARKS
EDENTON        SUNNY     89  72  57 SE6       30.00R
ELIZABETH CITY SUNNY     88  72  58 MISG      30.00R
KITTY HAWK     SUNNY     89  80  74 E5        29.99S HX 107
MANTEO         SUNNY     85  76  74 E6        30.00S

$$

NCZ045>047-081-094-103-104-301600-
CENTRAL COAST

CITY           SKY/WX    TMP DP  RH WIND       PRES   REMARKS
FRISCO         CLOUDY    87  78  74 SE9       30.01R HX 100

$$

NCZ095-097-098-100-101-301600-
SOUTHERN COAST

CITY           SKY/WX    TMP DP  RH WIND       PRES   REMARKS
BEAUFORT       MOSUNNY   86  79  79 S5        30.00R
CEDAR ISLAND   NOT AVBL
JACKSONVILLE   PTSUNNY   90  74  59 VRB5      29.99R
PINEY ISLAND   NOT AVBL
WILMINGTON     SUNNY     93  78  61 VRB7      29.99R HX 108


$$

NCZ011>013-027>030-043-044-078>080-089-090>093-098-301600-
COASTAL PLAIN

CITY           SKY/WX    TMP DP  RH WIND       PRES   REMARKS
AHOSKIE        CLOUDY    86  75  71 S5        29.99S
CLINTON        SUNNY     92  76  59 SW6       29.98F HX 103
ELIZABETHTOWN  SUNNY     91  75  59 S6        29.99S HX 101
GOLDSBORO      MOSUNNY   91  76  61 VRB7      29.96F HX 102
GREENVILLE     CLOUDY    88  79  74 S9        30.00S HAZE    HX 102
HAVELOCK       MOSUNNY   90  79  70 VRB3      30.00R HX 106
KENANSVILLE    NOT AVBL
KINSTON        SUNNY     90  75  62 S8        29.99S HX 100
NEW BERN       MOSUNNY   89  78  70 CALM      30.00S HX 103
RICHLANDS      SUNNY     92  76  59 S6        29.99S HX 104
ROCKY MOUNT    CLOUDY    84  78  82 S3        29.99R
WASHINGTON     CLOUDY    87  78  74 SE6       29.99S HX 100
WHITEVILLE     CLOUDY    89  76  65 SW3       29.99S HX 100

$$

AMZ130-135-150-152-154-156-158-170-250-252-270-ANZ085-086-088-633-658-670-301600-
MARINE OBSERVATIONS

STATION/POSITION TIME  TEMP    WIND        PRES    WAVE   SWELL
                       AIR SEA DIR/SP/G            HT/PER HT/PER
                 (UTC) (F)     (DEG/KT/KT) (MB)    (FT/S) (FT/S)
CHESAPEAKE LIGHT NOT AVBL
64 E VA BEACH    1450   81 83   80/  8/ 10 1016.1    3/ 7   3/ 7
DUCK             1400   86 75  100/  4/  4 1015.1
2 E DUCK         1411      81                N/A     2/ 8
OREGON INLET     1400   82 77   40/  5/  7 1015.5
13E OREGON INLT  1400      80                N/A     2/ 7   2/ 7
HATTERAS CG      1400   84 83  100/  7/  9 1015.2
DIAMOND BUOY     1450   85 86  160/  6/  8 1016.0    2/ 6   2/ 6
CAPE LOOKOUT     1500   82     130/  5/  5 1015.6
BEAUFORT LAB     1400   85 83  210/  4/  5 1014.7
30 SE NEW RVR IN 1408   85 85  250/  8/ 12 1015.7
30 SE NEW RVR IN 1425      85                N/A     3/ 6
27 SE WRIGHTSVLE 1408   85 84  240/  8/ 10 1015.9
5 SE WRIGHTSVLE  1408   82 80  170/  4/  8 1016.5
225 S CAPE HAT   1450   84 85  210/ 10/ 12 1018.3    3/ 6   2/ 6
41 SE CHARLESTON 1450   85 85  260/ 10/ 12 1016.3    4/ 6   3/ 6

$$




USA.gov is the U.S. government's official web portal to all federal, state and local government web resources and services.